Theta_e
331 322 309 307 298 296 293 298 303 305 309 310 312 312 314 319 319 312 340 348 353 353 358 359 361 362 362 362 362 361 361 361 361 361 361 360 361 361 360 360 359 357 355 352 352 353 354 354 353
325 313 306 301 294 289 292 299 301 305 309 311 311 313 323 321 336 337 339 351 352 355 356 357 361 361 362 361 361 360 360 360 360 360 360 360 360 360 360 360 359 357 354 351 352 353 354 354 352
316 308 300 296 291 290 292 302 302 306 309 308 309 315 324 326 339 339 344 351 353 354 355 356 361 360 360 360 360 360 359 359 359 359 359 359 358 358 358 358 358 355 352 351 352 353 353 353 353
303 302 298 292 290 294 298 304 304 305 308 310 311 313 328 342 341 344 351 352 352 352 354 359 360 360 360 360 359 359 359 359 359 359 359 358 358 357 356 356 355 354 353 351 352 353 353 354 354
300 296 290 288 290 295 301 305 303 303 304 307 309 315 324 344 350 351 351 352 350 351 353 358 360 360 359 359 358 358 359 359 358 359 358 358 357 356 355 354 354 354 353 353 352 352 353 353 352
295 293 286 288 292 297 300 304 303 304 304 307 309 320 326 346 347 349 351 350 351 350 354 355 359 359 359 358 358 358 357 357 358 358 358 358 356 355 354 354 353 353 353 352 351 351 350 348 346
292 288 285 286 290 295 299 305 301 305 305 306 316 320 327 340 347 349 349 351 351 354 353 354 355 357 359 358 357 357 356 356 356 356 356 357 356 354 354 353 353 353 353 352 350 349 347 346 345
294 291 285 288 290 294 300 303 304 306 307 313 328 321 321 337 346 349 350 351 351 352 352 352 352 353 354 355 358 357 356 356 356 356 356 356 356 355 354 352 352 353 353 352 351 350 348 346 345
294 287 282 285 291 293 299 298 305 308 305 311 328 327 332 343 347 345 345 347 348 350 350 351 351 352 352 352 355 357 356 356 356 356 356 353 351 350 350 351 349 353 352 351 351 350 348 347 346
290 284 287 292 294 293 297 297 300 302 303 304 322 334 341 341 342 340 340 340 343 345 347 350 350 351 351 353 352 352 351 351 351 351 350 349 346 345 347 348 350 350 353 351 351 350 349 348 341
288 285 291 293 295 296 297 298 302 299 299 304 309 329 337 337 338 339 339 341 342 345 346 348 349 350 349 350 351 352 351 349 348 349 348 347 344 344 345 342 343 345 348 345 346 345 343 341 338
285 291 294 294 296 294 295 300 300 301 301 306 307 316 335 334 335 337 338 339 340 342 345 347 349 347 347 349 350 349 349 350 348 349 347 343 341 340 340 339 338 338 340 340 340 337 338 336 336
287 290 292 294 295 296 296 296 297 300 303 307 306 319 332 332 335 338 339 340 340 340 343 346 348 348 348 348 349 348 349 349 349 347 348 346 342 339 339 338 336 335 337 337 336 335 334 334 333
292 293 294 293 292 293 293 296 298 301 304 305 305 321 330 331 332 336 338 340 340 341 341 345 347 347 348 348 348 348 348 348 348 347 348 346 343 339 337 336 335 334 335 336 336 335 334 333 332
293 290 292 292 292 291 294 291 294 301 303 302 303 314 321 322 329 333 338 340 341 342 343 342 345 347 346 347 348 348 348 348 348 348 348 346 343 339 337 337 335 335 335 335 335 335 335 333 333
289 287 283 292 293 294 294 288 296 299 300 300 302 305 314 315 317 330 335 340 342 343 342 342 344 345 345 345 346 346 347 347 348 348 346 346 346 342 338 336 336 337 336 335 335 335 334 333 333
285 283 284 288 293 293 293 289 296 299 300 300 302 303 305 309 311 319 325 332 336 342 342 342 342 342 343 343 343 344 341 343 344 343 342 343 345 344 339 337 338 338 337 336 335 336 335 335 335
283 283 286 287 291 291 289 290 294 297 298 300 299 301 302 305 307 311 318 323 326 337 340 341 340 341 341 339 337 336 335 337 339 339 340 342 342 344 341 340 337 335 336 336 337 337 337 337 337
289 288 288 291 294 291 290 290 293 296 296 296 307 298 300 302 307 308 310 312 313 323 328 336 337 338 335 335 335 334 333 332 334 336 338 339 339 340 341 340 339 336 334 336 337 337 336 336 336
290 288 288 292 294 291 291 291 293 294 294 296 298 304 300 301 303 306 307 310 315 318 328 333 336 334 336 337 338 340 339 338 337 338 338 339 340 339 339 339 338 338 339 338 337 336 335 334 335
289 288 288 290 293 291 289 288 290 294 295 296 296 298 300 301 301 303 304 308 319 324 330 332 334 335 337 339 342 341 341 341 339 341 341 342 344 345 344 344 341 340 340 338 339 338 335 334 338
287 293 293 291 288 283 288 281 286 290 292 295 296 295 298 299 300 300 303 306 314 324 328 332 334 338 340 342 341 338 338 334 335 333 333 334 337 338 340 340 340 338 342 339 341 342 339 338 334
291 294 292 291 286 283 284 282 285 289 291 293 294 297 297 298 299 300 300 307 311 316 322 331 336 338 341 342 341 336 327 326 326 325 324 325 329 332 334 335 335 334 334 334 338 339 340 341 337
296 289 287 284 283 279 283 282 283 287 290 293 296 300 301 300 300 300 301 307 311 313 318 322 325 323 325 325 325 325 322 321 321 320 319 322 324 326 329 329 329 330 330 332 333 334 334 334 334
289 284 278 278 277 278 284 283 285 291 298 298 298 299 299 300 298 297 301 305 310 313 315 318 320 318 319 319 320 319 320 321 318 317 317 319 321 322 324 325 326 327 327 328 330 330 329 329 328
290 285 279 276 276 278 286 281 287 299 301 300 300 299 300 299 300 302 305 307 310 313 315 316 316 315 316 316 317 318 319 318 318 319 321 321 321 321 322 323 324 324 324 325 325 326 327 328 327
290 287 288 281 281 279 282 286 292 299 299 300 298 298 298 299 300 302 304 305 306 308 311 312 312 311 312 312 314 317 319 318 320 321 321 320 320 322 320 320 319 320 321 320 321 321 321 324 327
296 295 286 284 279 277 281 283 284 293 295 297 297 297 296 297 299 301 304 306 306 307 308 309 310 310 311 314 316 318 318 320 320 319 318 318 319 321 318 318 318 319 319 318 319 318 320 320 322
292 290 291 288 285 279 279 282 292 294 296 296 298 299 298 296 297 300 302 304 305 307 308 309 311 312 313 314 314 315 316 317 317 317 317 318 317 317 317 317 317 317 317 317 317 317 318 320 321
293 289 290 283 282 283 282 286 300 300 300 300 299 302 302 301 298 300 302 303 306 307 307 308 309 310 311 312 311 311 311 314 316 316 315 316 315 315 316 316 316 317 317 316 316 316 318 319 320
Wind_Speed
8 6 1 4 4 5 4 7 2 3 3 4 4 5 7 4 3 6 1 6 15 16 13 15 19 20 20 20 19 18 17 17 18 19 19 18 17 16 15 14 14 14 14 14 14 14 13 12 12
3 2 5 2 4 1 6 4 3 5 4 10 6 5 4 4 3 4 7 8 17 17 11 12 19 19 21 21 20 19 17 16 16 17 17 17 16 15 15 14 13 14 14 14 14 14 13 12 11
2 2 4 4 4 7 5 5 4 3 8 5 4 4 5 3 2 9 2 14 16 15 11 13 18 19 20 21 21 20 19 18 17 16 16 16 15 14 14 13 13 14 14 14 13 13 13 12 11
2 4 4 4 9 6 5 4 5 8 6 3 4 8 3 4 4 5 13 14 13 10 10 16 17 18 20 20 19 19 19 18 18 17 16 15 14 13 13 12 12 12 13 13 13 12 11 10 9
4 3 2 3 6 4 6 4 5 8 3 6 7 7 3 4 7 13 16 14 12 8 8 12 16 18 19 19 19 18 17 17 16 16 15 15 14 13 13 12 12 12 12 12 12 10 9 9 8
4 4 1 10 9 3 5 10 4 5 0 8 4 3 2 2 7 9 12 12 11 11 9 9 14 17 18 18 18 17 16 16 15 15 15 14 13 12 11 12 11 11 11 11 11 10 9 9 9
7 5 6 3 1 5 5 5 4 5 3 8 4 3 1 3 7 10 10 11 10 8 9 7 9 12 16 17 17 16 16 15 14 13 13 13 13 13 13 12 11 10 9 9 9 9 9 9 8
5 4 3 6 5 14 2 4 4 6 7 6 7 6 5 7 11 12 11 11 11 9 9 9 7 8 8 9 16 16 16 15 15 14 12 12 11 11 10 10 9 9 8 7 7 7 7 7 7
4 1 3 4 8 6 5 3 4 7 2 10 3 0 1 18 15 13 12 10 10 9 10 7 8 8 8 8 11 14 17 16 15 14 14 11 5 5 7 7 9 7 7 6 6 7 7 7 7
4 4 7 6 4 3 4 3 5 5 9 6 5 6 13 15 12 17 14 14 15 14 13 12 8 10 9 8 7 6 6 6 6 6 5 4 4 4 4 6 8 8 7 7 8 8 8 7 3
4 5 5 5 6 7 7 3 4 2 9 5 7 5 9 12 11 11 13 15 16 14 11 12 10 9 11 8 6 5 3 3 3 3 4 3 2 2 1 1 2 2 6 3 4 4 2 3 2
1 6 9 6 8 5 6 10 15 8 11 14 8 8 14 13 13 14 14 14 13 13 14 11 9 7 6 3 6 6 5 5 4 5 5 4 3 3 2 2 2 3 1 3 2 2 2 3 3
4 7 6 7 10 13 7 19 10 23 12 16 14 8 17 16 16 13 13 12 12 12 12 12 11 10 9 6 6 5 6 6 6 5 5 4 4 5 4 3 1 2 1 2 3 3 3 3 3
6 12 18 10 12 6 6 12 5 26 8 13 10 10 17 21 20 12 11 14 16 13 13 12 13 11 10 10 9 7 7 6 4 4 4 5 4 3 3 3 3 3 4 3 3 3 3 4 4
6 7 7 8 11 9 9 12 23 21 9 15 12 8 12 9 3 16 19 17 15 12 10 13 13 14 14 13 9 7 6 6 6 7 6 6 5 5 5 5 4 5 4 4 3 3 3 4 4
3 2 2 10 7 8 13 14 18 10 9 13 12 9 12 10 9 10 13 16 17 12 15 16 14 15 14 13 9 7 6 5 7 6 5 7 7 7 6 4 5 3 3 3 4 4 4 5 5
2 4 6 9 10 4 12 9 22 12 10 12 7 8 9 7 9 10 11 11 9 17 18 15 15 17 16 11 7 7 7 6 5 4 4 6 7 6 5 4 3 3 3 4 4 3 4 6 5
5 5 5 5 3 5 5 11 11 9 8 15 12 11 9 11 13 11 12 10 9 11 9 11 11 12 13 8 6 4 4 4 5 6 5 8 6 6 6 6 5 4 4 5 4 5 4 6 7
5 5 6 6 5 3 6 8 12 10 5 7 18 8 10 10 8 6 7 9 9 4 8 10 12 11 10 8 9 6 6 4 4 4 7 7 6 6 6 4 4 4 6 7 7 5 8 7 3
7 7 8 8 2 4 5 6 6 4 6 7 12 16 11 6 9 7 9 7 9 12 13 11 13 11 11 8 6 4 5 4 4 5 6 4 5 7 6 5 7 8 5 5 6 8 6 4 4
6 6 6 8 5 0 2 7 5 3 4 6 8 10 7 10 11 10 8 12 8 10 11 13 13 13 12 11 7 3 4 3 2 3 3 2 4 5 5 4 3 4 5 5 6 6 10 6 5
5 10 11 6 3 4 2 4 6 4 8 5 6 7 9 10 6 7 11 7 11 14 6 9 11 13 11 13 11 8 6 5 3 4 4 4 4 4 4 3 2 2 1 3 4 5 6 6 7
10 2 6 4 4 3 3 4 8 3 5 4 4 2 5 8 8 9 8 2 1 1 5 8 11 11 8 11 10 6 5 3 3 5 7 5 4 5 5 5 4 2 0 2 4 5 5 6 7
4 3 6 5 5 2 6 6 6 3 3 8 5 5 8 10 9 8 5 7 5 4 3 6 8 5 6 6 8 8 9 7 5 4 4 4 3 3 4 4 3 2 2 2 2 3 4 4 5
3 6 4 4 3 6 0 2 9 6 6 4 8 9 7 7 7 8 4 6 8 10 7 5 8 8 7 8 6 8 8 8 8 6 4 5 3 2 3 3 3 2 0 1 1 2 3 4 4
2 7 7 5 4 5 1 4 6 4 4 4 5 6 6 6 5 6 3 2 4 8 7 9 9 8 8 8 7 5 6 4 4 4 3 4 3 3 4 3 2 2 0 2 3 2 3 3 5
3 3 3 8 3 2 3 6 7 3 4 6 7 6 7 6 5 7 8 7 8 6 8 9 8 7 7 6 5 4 4 5 5 5 5 4 4 3 5 5 5 4 3 2 2 2 5 4 5
2 5 3 3 4 3 4 4 6 3 2 6 8 9 9 8 6 6 8 9 7 5 7 8 6 7 6 7 6 5 6 6 6 6 6 7 6 5 5 5 4 3 3 3 2 3 4 4 5
6 2 5 4 4 6 2 6 4 4 5 1 5 6 5 6 7 6 4 6 7 5 6 7 7 8 7 6 5 6 6 6 6 6 6 6 5 6 6 6 5 5 5 5 4 4 5 6 6
2 2 4 5 4 1 2 8 2 3 4 5 3 5 4 4 4 4 5 6 2 2 3 4 2 3 2 3 4 5 5 6 6 6 7 6 7 6 8 7 7 6 6 6 6 6 6 7 8
Wind_Direction
302 296 301 33 44 64 259 255 230 321 243 142 236 250 222 286 214 216 125 147 129 144 151 152 154 145 141 138 135 132 130 128 128 131 134 137 140 143 143 143 140 142 144 146 145 145 144 142 141
314 313 41 70 112 214 256 250 212 235 290 313 287 288 219 251 119 102 124 156 145 142 152 149 152 146 142 140 137 135 133 130 132 135 137 139 142 144 145 145 149 152 154 155 155 154 155 153 151
298 46 104 149 180 215 225 221 214 286 291 262 327 254 302 319 38 157 142 145 140 143 150 154 152 149 144 141 140 139 140 139 140 141 143 145 147 148 149 154 157 162 162 161 161 162 164 164 163
95 19 36 147 225 263 216 257 359 338 339 2 339 297 74 24 154 159 130 134 133 137 144 155 153 149 144 141 141 141 143 144 146 148 149 148 150 153 156 160 165 167 168 170 170 170 171 175 178
38 53 186 222 236 237 245 263 346 307 293 299 324 282 337 32 75 120 128 133 133 130 138 150 154 150 145 144 144 144 145 146 150 151 155 157 161 163 165 170 173 175 176 177 177 178 181 186 190
60 95 133 231 226 229 235 257 236 260 303 279 308 243 355 94 100 126 133 129 132 138 141 150 158 153 147 146 147 149 151 151 157 160 165 165 170 172 175 180 184 186 186 186 184 185 190 195 203
121 104 220 222 283 250 209 254 232 260 269 272 216 217 168 109 131 125 120 118 117 128 140 144 154 158 151 150 153 156 158 160 164 169 172 176 181 182 183 189 195 196 195 196 197 197 200 209 219
117 113 225 205 173 257 214 199 239 216 265 264 159 211 222 164 140 121 114 115 125 131 149 163 157 148 148 157 161 164 167 170 172 176 181 185 192 194 195 195 200 204 205 206 209 214 221 229 242
116 149 223 226 168 257 301 356 337 318 318 309 339 111 111 141 133 122 127 135 149 159 163 166 164 158 154 157 174 174 178 181 184 185 189 189 190 193 203 200 208 213 212 220 226 231 237 246 261
150 177 227 205 211 261 264 283 337 333 327 299 308 40 127 145 153 145 157 166 176 176 180 181 178 169 159 166 166 167 185 185 188 192 191 182 182 186 186 209 220 224 218 220 227 237 243 248 247
190 207 212 264 278 291 283 282 262 305 289 217 286 135 171 165 171 169 165 179 184 179 181 188 184 176 171 175 165 169 167 158 175 185 178 165 147 186 223 190 231 231 241 222 236 250 246 266 279
259 208 213 225 270 277 255 277 262 233 244 266 242 258 188 182 181 177 178 172 178 187 190 185 187 176 172 151 171 176 176 178 176 189 178 160 169 188 218 227 227 234 250 276 276 302 307 294 292
208 239 247 246 244 249 254 265 287 278 272 281 286 225 190 191 191 202 187 169 170 192 197 191 178 184 184 177 179 178 188 189 195 185 187 177 189 199 175 207 228 246 252 247 251 240 264 276 276
219 235 245 237 241 217 239 275 224 259 255 270 276 211 201 196 191 178 173 190 187 178 193 188 192 190 188 189 187 189 189 182 166 176 192 190 181 184 192 197 205 217 212 216 233 238 250 259 255
244 256 275 237 226 228 161 275 246 264 250 261 270 222 222 226 217 190 187 192 190 193 185 204 193 190 189 191 186 185 189 176 196 207 199 188 178 183 195 218 223 222 212 224 241 245 242 255 249
258 126 290 266 187 236 160 246 252 237 225 250 235 235 225 210 203 223 217 187 190 180 194 193 196 192 198 194 188 181 172 179 203 197 174 187 194 187 198 214 232 206 195 206 227 226 247 254 247
306 221 219 304 198 128 179 233 258 242 208 234 249 241 205 244 223 200 219 191 191 181 206 199 191 194 191 193 178 173 153 180 183 170 181 187 193 189 200 220 250 213 220 215 233 228 225 260 264
242 241 243 235 158 198 183 259 280 281 216 218 197 242 228 206 222 221 207 215 195 190 204 205 197 192 180 171 134 131 156 174 169 184 192 195 190 179 192 217 208 198 217 228 214 225 212 245 259
287 260 268 260 191 250 194 241 263 259 185 250 230 199 258 229 220 269 224 218 187 190 181 189 182 181 158 160 162 160 193 172 205 182 211 195 185 212 210 210 193 197 214 217 212 221 250 262 202
245 272 273 272 303 137 300 268 257 252 242 213 209 244 215 231 277 212 229 221 218 200 194 180 187 173 173 171 162 159 172 189 200 189 202 209 175 209 234 206 226 232 240 224 218 218 247 240 207
225 221 251 243 337 282 358 327 329 317 342 267 253 240 214 206 223 245 208 207 214 211 194 183 178 171 173 163 141 107 102 76 155 132 126 180 164 182 192 203 219 232 209 233 230 220 223 249 245
245 214 236 242 90 244 94 250 296 291 301 281 311 259 252 208 231 225 231 218 189 215 174 150 154 163 171 168 165 163 180 153 151 132 133 140 130 129 138 162 197 263 292 271 250 232 231 228 260
229 167 236 195 163 66 314 86 265 303 275 281 310 317 287 273 234 244 222 242 330 295 178 162 160 173 169 174 187 168 110 91 111 114 119 121 118 119 112 111 119 108 329 276 276 281 265 247 249
273 116 49 50 98 99 241 149 283 247 319 303 305 330 321 314 307 272 194 165 158 114 111 127 122 98 109 111 112 118 127 124 120 108 106 115 114 87 83 87 88 70 41 359 309 287 281 268 254
97 62 343 355 20 215 81 67 236 306 321 294 307 320 329 324 320 305 223 195 166 154 138 112 113 104 106 106 113 127 132 132 131 148 157 146 138 137 145 131 110 104 359 342 310 286 265 263 238
210 152 158 210 195 255 264 229 249 250 280 342 326 314 338 12 34 38 45 161 176 133 126 121 120 115 117 118 111 97 117 132 139 146 128 124 146 155 160 156 161 157 21 348 343 318 293 260 246
180 205 174 106 21 70 266 299 324 38 33 357 2 20 19 31 66 79 72 75 74 85 106 111 97 90 93 104 106 116 131 136 146 137 127 143 158 174 178 182 184 200 225 252 279 280 293 295 272
127 153 77 5 149 228 294 282 240 255 197 3 2 354 349 350 20 71 90 93 85 91 101 104 113 135 155 152 159 164 166 165 158 147 161 178 185 187 189 204 224 241 250 262 275 287 282 280 286
356 32 65 109 128 162 214 258 228 229 148 102 341 352 17 19 354 357 72 100 116 115 126 140 149 161 176 175 153 147 160 164 162 180 191 191 186 191 206 216 225 229 235 246 247 262 274 281 283
55 89 114 126 235 223 169 251 164 155 153 170 227 302 326 14 7 349 355 353 5 98 113 120 112 172 164 132 151 184 190 193 195 204 206 194 205 206 212 215 222 229 230 238 235 245 252 260 272